�������C�����ː����j�^�v���󋵏��
Date,Time,Cs137(Bq/L),Cs134(Bq/L),�S��(Bq/L)
2016/12/09,00:00,0.85,0.077,8.9
2016/12/09,00:10,0.69,0.10,ND
2016/12/09,00:20,0.85,0.071,ND
2016/12/09,00:30,0.80,0.084,ND
2016/12/09,00:40,0.67,0.10,ND
2016/12/09,00:50,0.80,0.070,ND
2016/12/09,01:00,0.82,0.060,ND
2016/12/09,01:10,0.80,0.058,ND
2016/12/09,01:20,0.82,0.058,10
2016/12/09,01:30,0.85,0.054,ND
2016/12/09,01:40,0.85,0.055,ND
2016/12/09,01:50,0.86,0.058,ND
2016/12/09,02:00,0.83,0.058,ND
2016/12/09,02:10,0.84,0.057,ND
2016/12/09,02:20,0.83,0.056,ND
2016/12/09,02:30,0.83,0.064,ND
2016/12/09,02:40,0.83,0.070,ND
2016/12/09,02:50,0.84,0.068,ND
2016/12/09,03:00,0.88,0.072,ND
2016/12/09,03:10,0.88,0.078,ND
2016/12/09,03:20,0.89,0.082,ND
2016/12/09,03:30,0.88,0.074,ND
2016/12/09,03:40,0.89,0.065,ND
2016/12/09,03:50,0.75,0.10,ND
2016/12/09,04:00,0.92,0.068,ND
2016/12/09,04:10,0.94,0.065,ND
2016/12/09,04:20,0.96,0.061,ND
2016/12/09,04:30,0.99,0.067,ND
2016/12/09,04:40,0.98,0.076,ND
2016/12/09,04:50,0.99,0.075,ND
2016/12/09,05:00,0.96,0.073,ND
2016/12/09,05:10,0.95,0.075,ND
2016/12/09,05:20,0.91,0.089,ND
2016/12/09,05:30,0.91,0.091,ND
2016/12/09,05:40,0.90,0.098,ND
2016/12/09,05:50,0.88,0.10,ND
2016/12/09,06:00,0.76,0.12,ND
2016/12/09,06:10,0.74,0.12,ND
2016/12/09,06:20,0.76,0.11,ND
2016/12/09,06:30,0.76,0.11,ND
2016/12/09,06:40,0.77,0.11,ND
2016/12/09,06:50,0.79,0.10,11
2016/12/09,07:00,0.77,0.11,9.7
2016/12/09,07:10,0.78,0.095,10
2016/12/09,07:20,0.78,0.091,9.7
2016/12/09,07:30,0.78,0.082,ND
2016/12/09,07:40,0.78,0.078,ND
2016/12/09,07:50,0.76,0.072,ND
2016/12/09,08:00,0.74,0.073,ND
2016/12/09,08:10,0.75,0.079,ND
2016/12/09,08:20,0.71,0.094,ND
2016/12/09,08:30,0.70,0.094,ND
2016/12/09,08:40,0.66,0.099,ND
2016/12/09,08:50,0.68,0.099,ND
2016/12/09,09:00,0.66,0.095,10
2016/12/09,09:10,0.64,0.11,9.3
2016/12/09,09:20,0.65,0.11,9.3
2016/12/09,09:30,0.64,0.11,9.5
2016/12/09,09:40,0.63,0.11,9.9
2016/12/09,09:50,0.74,0.074,ND
2016/12/09,10:00,0.76,0.077,ND
2016/12/09,10:10,0.76,0.065,ND
2016/12/09,10:20,0.75,0.066,ND
2016/12/09,10:30,0.76,0.062,ND
2016/12/09,10:40,0.77,0.055,ND
2016/12/09,10:50,0.76,0.065,ND
2016/12/09,11:00,0.76,0.069,ND
2016/12/09,11:10,0.75,0.076,ND
2016/12/09,11:20,0.61,0.10,ND
2016/12/09,11:30,0.77,0.076,ND
2016/12/09,11:40,0.62,0.12,9.7
2016/12/09,11:50,0.63,0.11,ND
2016/12/09,12:00,0.79,0.082,9.3
2016/12/09,12:10,0.81,0.080,ND
2016/12/09,12:20,0.82,0.073,ND
2016/12/09,12:30,0.81,0.073,9.5
2016/12/09,12:40,0.80,0.066,ND
2016/12/09,12:50,0.79,0.066,ND
2016/12/09,13:00,0.79,0.062,ND
2016/12/09,13:10,0.75,0.068,ND
2016/12/09,13:20,0.73,0.068,9.3
2016/12/09,13:30,0.60,0.089,ND
2016/12/09,13:40,0.62,0.084,11
2016/12/09,13:50,0.63,0.083,13
2016/12/09,14:00,0.78,0.057,16
2016/12/09,14:10,0.83,0.049,19
2016/12/09,14:20,0.85,0.055,14
2016/12/09,14:30,0.86,0.061,13
2016/12/09,14:40,0.86,0.065,9.3
2016/12/09,14:50,0.87,0.064,ND
2016/12/09,15:00,0.86,0.065,ND
2016/12/09,15:10,0.85,0.075,ND
2016/12/09,15:20,0.83,0.075,ND
2016/12/09,15:30,0.86,0.067,ND
2016/12/09,15:40,0.87,0.076,11
2016/12/09,15:50,0.88,0.083,13
2016/12/09,16:00,0.91,0.085,13
2016/12/09,16:10,0.92,0.090,13
2016/12/09,16:20,0.97,0.096,11
2016/12/09,16:30,0.96,0.12,12
2016/12/09,16:40,0.97,0.11,8.8
2016/12/09,16:50,0.98,0.10,ND
2016/12/09,17:00,0.98,0.10,ND
2016/12/09,17:10,0.99,0.095,ND
2016/12/09,17:20,0.97,0.085,ND
2016/12/09,17:30,0.98,0.064,ND
2016/12/09,17:40,0.96,0.070,ND
2016/12/09,17:50,0.95,0.075,ND
2016/12/09,18:00,0.93,0.082,ND
2016/12/09,18:10,0.93,0.080,8.8
2016/12/09,18:20,0.94,0.080,ND
2016/12/09,18:30,0.92,0.081,ND
2016/12/09,18:40,0.77,0.11,ND
2016/12/09,18:50,0.91,0.086,ND
2016/12/09,19:00,0.90,0.090,ND
2016/12/09,19:10,0.90,0.094,ND
2016/12/09,19:20,0.93,0.088,ND
2016/12/09,19:30,0.95,0.097,ND
2016/12/09,19:40,0.94,0.097,ND
2016/12/09,19:50,0.95,0.099,ND
2016/12/09,20:00,0.95,0.089,ND
2016/12/09,20:10,0.83,0.11,ND
2016/12/09,20:20,0.83,0.11,10
2016/12/09,20:30,0.96,0.082,12
2016/12/09,20:40,0.95,0.076,13
2016/12/09,20:50,0.78,0.11,13
2016/12/09,21:00,0.76,0.10,12
2016/12/09,21:10,0.90,0.075,13
2016/12/09,21:20,0.86,0.071,12
2016/12/09,21:30,0.88,0.073,ND
2016/12/09,21:40,0.90,0.081,ND
2016/12/09,21:50,0.92,0.077,ND
2016/12/09,22:00,0.93,0.075,ND
2016/12/09,22:10,0.92,0.071,ND
2016/12/09,22:20,0.92,0.072,ND
2016/12/09,22:30,0.90,0.082,ND
2016/12/09,22:40,0.87,0.074,ND
2016/12/09,22:50,0.86,0.071,ND
2016/12/09,23:00,0.86,0.077,ND
2016/12/09,23:10,0.85,0.087,ND
2016/12/09,23:20,0.84,0.085,ND
2016/12/09,23:30,0.85,0.071,ND
2016/12/09,23:40,0.86,0.074,ND
2016/12/09,23:50,0.83,0.080,ND
